{"data":{"norad_id":57120,"epoch":"2026-09-20T22:26:27.744576Z","epoch_age_seconds":83368,"freshness":"FRESH","line1":"1 57120U 23090V   26263.93504334  .00000545  00000+0  29338-4 0  9991","line2":"2 57120  43.0012 258.8225 0001311 267.2382  92.8320 15.27577527180196","mean_motion":15.27577527,"eccentricity":0.0001311,"inclination_deg":43.0012,"raan_deg":258.8225,"arg_perigee_deg":267.2382,"mean_anomaly_deg":92.832,"bstar":2.9338e-5,"rev_number":18019,"period_min":94.266901322384,"perigee_km":482.15699863331,"apogee_km":483.95600356929,"semimajor_km":6861.1935011013,"source":"CELESTRAK","updated_at":"2026-09-21T09:00:33.561780Z"}}